Retour au catalogue

STARLINK-31258

ActifCommunicationsVLEO
NORAD 58829·PAYLOAD·🇺🇸 United States

Lancé Jan 24, 2024 depuis Vandenberg Space Force Base

Loading…

Prochains Passages (prochaines 24 heures)

TLE

FraisSource: CelesTrak SupGP

Époque: Sep 14, 2026, 20:42 UTC

1 58829C 24017D   26257.86298611  .00025453  00000+0  75228-3 0  2571
2 58829  53.1591  43.7639 0001199  84.0005 354.2704 15.34366282    13

Suivez STARLINK-31258 en temps réel avec AllMySat

Download on the App Store